Time,TemperatureF,DewpointF,PressureIn,WindDirection,WindDirectionDegrees,WindSpeedMPH,WindSpeedGustMPH,Humidity,HourlyPrecipIn,Conditions,Clouds,dailyrainin,SoftwareType,DateUTC
2013-02-14 00:00:00,35.6,-99.9,28.51,NNW,337,1.0,-999.0,-999,-99.99,,,-99.99,,2013-02-14 00:00:00,
2013-02-14 00:06:00,35.5,-99.9,28.51,WSW,247,2.0,-999.0,-999,-99.99,,,-99.99,,2013-02-14 00:06:00,
2013-02-14 00:12:00,35.5,-99.9,28.51,WNW,292,4.0,-999.0,-999,-99.99,,,-99.99,,2013-02-14 00:12:00,
2013-02-14 00:18:00,35.7,-99.9,28.51,WSW,247,4.0,-999.0,-999,-99.99,,,-99.99,,2013-02-14 00:18:00,
2013-02-14 00:24:00,35.8,-99.9,28.51,SW,225,4.0,-999.0,-999,-99.99,,,-99.99,,2013-02-14 00:24:00,
2013-02-14 00:30:00,36.0,-99.9,28.52,WSW,247,5.0,-999.0,-999,-99.99,,,-99.99,,2013-02-14 00:30:00,
2013-02-14 00:36:00,36.2,-99.9,28.52,West,270,4.0,-999.0,-999,-99.99,,,-99.99,,2013-02-14 00:36:00,
2013-02-14 00:42:00,36.2,-99.9,28.52,West,270,5.0,-999.0,-999,-99.99,,,-99.99,,2013-02-14 00:42:00,
2013-02-14 00:48:00,35.9,-99.9,28.52,West,270,0.0,-999.0,-999,-99.99,,,-99.99,,2013-02-14 00:48:00,
2013-02-14 00:54:00,35.6,-99.9,28.52,WNW,292,4.0,-999.0,-999,-99.99,,,-99.99,,2013-02-14 00:54:00,
2013-02-14 01:00:00,35.3,-99.9,28.52,WNW,292,2.0,-999.0,-999,-99.99,,,-99.99,,2013-02-14 01:00:00,
2013-02-14 01:06:00,35.3,-99.9,28.52,WNW,292,3.0,-999.0,-999,-99.99,,,-99.99,,2013-02-14 01:06:00,
2013-02-14 01:12:00,35.2,-99.9,28.52,WNW,292,0.0,-999.0,-999,-99.99,,,-99.99,,2013-02-14 01:12:00,
2013-02-14 01:18:00,35.4,-99.9,28.52,WNW,292,0.0,-999.0,-999,-99.99,,,-99.99,,2013-02-14 01:18:00,
2013-02-14 01:24:00,35.6,-99.9,28.52,West,270,0.0,-999.0,-999,-99.99,,,-99.99,,2013-02-14 01:24:00,
2013-02-14 01:30:00,35.9,-99.9,28.52,WNW,292,1.0,-999.0,-999,-99.99,,,-99.99,,2013-02-14 01:30:00,
2013-02-14 01:42:00,36.7,-99.9,28.52,WNW,292,7.0,-999.0,-999,-99.99,,,-99.99,,2013-02-14 01:42:00,
2013-02-14 01:52:00,36.7,-99.9,28.52,West,270,3.0,-999.0,-999,-99.99,,,-99.99,,2013-02-14 01:52:00,
2013-02-14 01:58:00,36.6,-99.9,28.52,West,270,3.0,-999.0,-999,-99.99,,,-99.99,,2013-02-14 01:58:00,
2013-02-14 02:04:00,36.5,-99.9,28.52,WNW,292,5.0,-999.0,-999,-99.99,,,-99.99,,2013-02-14 02:04:00,
2013-02-14 02:10:00,36.4,-99.9,28.52,West,270,4.0,-999.0,-999,-99.99,,,-99.99,,2013-02-14 02:10:00,
2013-02-14 02:16:00,36.3,-99.9,28.52,WSW,247,5.0,-999.0,-999,-99.99,,,-99.99,,2013-02-14 02:16:00,
2013-02-14 02:32:00,37.0,-99.9,28.53,SW,225,2.0,-999.0,-999,-99.99,,,-99.99,,2013-02-14 02:32:00,
2013-02-14 02:38:00,37.1,-99.9,28.53,WSW,247,1.0,-999.0,-999,-99.99,,,-99.99,,2013-02-14 02:38:00,
2013-02-14 02:44:00,37.1,-99.9,28.52,West,270,2.0,-999.0,-999,-99.99,,,-99.99,,2013-02-14 02:44:00,
2013-02-14 02:50:00,37.2,-99.9,28.53,WSW,247,3.0,-999.0,-999,-99.99,,,-99.99,,2013-02-14 02:50:00,
2013-02-14 02:56:00,37.2,-99.9,28.52,SW,225,3.0,-999.0,-999,-99.99,,,-99.99,,2013-02-14 02:56:00,
2013-02-14 03:02:00,37.2,-99.9,28.53,WSW,247,2.0,-999.0,-999,-99.99,,,-99.99,,2013-02-14 03:02:00,
2013-02-14 03:08:00,37.1,-99.9,28.52,West,270,2.0,-999.0,-999,-99.99,,,-99.99,,2013-02-14 03:08:00,
2013-02-14 03:14:00,37.0,-99.9,28.52,WSW,247,1.0,-999.0,-999,-99.99,,,-99.99,,2013-02-14 03:14:00,
2013-02-14 03:22:00,37.0,-99.9,28.52,West,270,2.0,-999.0,-999,-99.99,,,-99.99,,2013-02-14 03:22:00,
2013-02-14 03:28:00,36.7,-99.9,28.52,West,270,2.0,-999.0,-999,-99.99,,,-99.99,,2013-02-14 03:28:00,
2013-02-14 03:34:00,36.7,-99.9,28.52,West,270,2.0,-999.0,-999,-99.99,,,-99.99,,2013-02-14 03:34:00,
2013-02-14 03:40:00,36.8,-99.9,28.52,SW,225,2.0,-999.0,-999,-99.99,,,-99.99,,2013-02-14 03:40:00,
2013-02-14 03:46:00,36.8,-99.9,28.52,WNW,292,2.0,-999.0,-999,-99.99,,,-99.99,,2013-02-14 03:46:00,
2013-02-14 03:52:00,36.8,-99.9,28.52,West,270,3.0,-999.0,-999,-99.99,,,-99.99,,2013-02-14 03:52:00,
2013-02-14 03:58:00,36.7,-99.9,28.52,WNW,292,2.0,-999.0,-999,-99.99,,,-99.99,,2013-02-14 03:58:00,
2013-02-14 04:04:00,36.4,-99.9,28.52,WSW,247,1.0,-999.0,-999,-99.99,,,-99.99,,2013-02-14 04:04:00,
2013-02-14 04:10:00,36.4,-99.9,28.52,WSW,247,0.0,-999.0,-999,-99.99,,,-99.99,,2013-02-14 04:10:00,
2013-02-14 04:16:00,36.4,-99.9,28.52,NW,315,1.0,-999.0,-999,-99.99,,,-99.99,,2013-02-14 04:16:00,
2013-02-14 04:22:00,36.5,-99.9,28.52,NW,315,2.0,-999.0,-999,-99.99,,,-99.99,,2013-02-14 04:22:00,
2013-02-14 04:28:00,36.4,-99.9,28.53,NW,315,1.0,-999.0,-999,-99.99,,,-99.99,,2013-02-14 04:28:00,
2013-02-14 04:34:00,36.6,-99.9,28.53,WSW,247,3.0,-999.0,-999,-99.99,,,-99.99,,2013-02-14 04:34:00,
2013-02-14 04:40:00,36.7,-99.9,28.53,WSW,247,4.0,-999.0,-999,-99.99,,,-99.99,,2013-02-14 04:40:00,
2013-02-14 04:46:00,36.8,-99.9,28.53,WNW,292,3.0,-999.0,-999,-99.99,,,-99.99,,2013-02-14 04:46:00,
2013-02-14 04:52:00,36.6,-99.9,28.53,SW,225,3.0,-999.0,-999,-99.99,,,-99.99,,2013-02-14 04:52:00,
2013-02-14 04:58:00,36.5,-99.9,28.53,WSW,247,4.0,-999.0,-999,-99.99,,,-99.99,,2013-02-14 04:58:00,
2013-02-14 05:00:00,36.4,-99.9,28.53,WSW,247,2.0,-999.0,-999,-99.99,,,-99.99,,2013-02-14 05:00:00,
2013-02-14 05:02:00,36.5,-99.9,28.53,West,270,2.0,-999.0,-999,-99.99,,,-99.99,,2013-02-14 05:02:00,
2013-02-14 05:04:00,36.4,-99.9,28.53,WSW,247,3.0,-999.0,-999,-99.99,,,-99.99,,2013-02-14 05:04:00,
2013-02-14 05:06:00,36.5,-99.9,28.54,SW,225,4.0,-999.0,-999,-99.99,,,-99.99,,2013-02-14 05:06:00,
2013-02-14 05:12:00,36.7,-99.9,28.54,West,270,4.0,-999.0,-999,-99.99,,,-99.99,,2013-02-14 05:12:00,
2013-02-14 05:18:00,36.8,-99.9,28.54,West,270,4.0,-999.0,-999,-99.99,,,-99.99,,2013-02-14 05:18:00,
2013-02-14 05:24:00,37.0,-99.9,28.54,WSW,247,2.0,-999.0,-999,-99.99,,,-99.99,,2013-02-14 05:24:00,
2013-02-14 05:30:00,37.1,-99.9,28.54,WNW,292,2.0,-999.0,-999,-99.99,,,-99.99,,2013-02-14 05:30:00,
2013-02-14 05:36:00,37.0,-99.9,28.54,SW,225,2.0,-999.0,-999,-99.99,,,-99.99,,2013-02-14 05:36:00,
2013-02-14 05:42:00,37.0,-99.9,28.54,WSW,247,1.0,-999.0,-999,-99.99,,,-99.99,,2013-02-14 05:42:00,
2013-02-14 05:48:00,37.0,-99.9,28.54,WNW,292,0.0,-999.0,-999,-99.99,,,-99.99,,2013-02-14 05:48:00,
2013-02-14 05:54:00,37.0,-99.9,28.54,WSW,247,1.0,-999.0,-999,-99.99,,,-99.99,,2013-02-14 05:54:00,
2013-02-14 06:00:00,36.8,-99.9,28.54,NW,315,1.0,-999.0,-999,-99.99,,,-99.99,,2013-02-14 06:00:00,
2013-02-14 06:06:00,36.8,-99.9,28.54,WNW,292,2.0,-999.0,-999,-99.99,,,-99.99,,2013-02-14 06:06:00,
2013-02-14 06:12:00,36.7,-99.9,28.55,WNW,292,0.0,-999.0,-999,-99.99,,,-99.99,,2013-02-14 06:12:00,
2013-02-14 06:18:00,36.8,-99.9,28.55,West,270,2.0,-999.0,-999,-99.99,,,-99.99,,2013-02-14 06:18:00,
2013-02-14 06:24:00,36.8,-99.9,28.55,WNW,292,3.0,-999.0,-999,-99.99,,,-99.99,,2013-02-14 06:24:00,
2013-02-14 06:30:00,37.0,-99.9,28.55,West,270,3.0,-999.0,-999,-99.99,,,-99.99,,2013-02-14 06:30:00,
2013-02-14 06:36:00,37.0,-99.9,28.55,WNW,292,5.0,-999.0,-999,-99.99,,,-99.99,,2013-02-14 06:36:00,
2013-02-14 06:42:00,36.8,-99.9,28.55,SW,225,2.0,-999.0,-999,-99.99,,,-99.99,,2013-02-14 06:42:00,
2013-02-14 06:48:00,37.1,-99.9,28.55,West,270,4.0,-999.0,-999,-99.99,,,-99.99,,2013-02-14 06:48:00,
2013-02-14 06:54:00,37.2,-99.9,28.55,WNW,292,3.0,-999.0,-999,-99.99,,,-99.99,,2013-02-14 06:54:00,
2013-02-14 07:00:00,37.2,-99.9,28.55,WNW,292,3.0,-999.0,-999,-99.99,,,-99.99,,2013-02-14 07:00:00,
2013-02-14 07:06:00,37.2,-99.9,28.56,West,270,4.0,-999.0,-999,-99.99,,,-99.99,,2013-02-14 07:06:00,
2013-02-14 07:12:00,37.3,-99.9,28.56,WSW,247,4.0,-999.0,-999,-99.99,,,-99.99,,2013-02-14 07:12:00,
2013-02-14 07:18:00,37.3,-99.9,28.55,West,270,5.0,-999.0,-999,-99.99,,,-99.99,,2013-02-14 07:18:00,
2013-02-14 07:24:00,37.3,-99.9,28.56,West,270,4.0,-999.0,-999,-99.99,,,-99.99,,2013-02-14 07:24:00,
2013-02-14 07:30:00,37.2,-99.9,28.56,WNW,292,6.0,-999.0,-999,-99.99,,,-99.99,,2013-02-14 07:30:00,
2013-02-14 07:36:00,37.4,-99.9,28.56,WSW,247,5.0,-999.0,-999,-99.99,,,-99.99,,2013-02-14 07:36:00,
2013-02-14 07:42:00,37.3,-99.9,28.56,West,270,4.0,-999.0,-999,-99.99,,,-99.99,,2013-02-14 07:42:00,
2013-02-14 07:48:00,37.4,-99.9,28.56,WNW,292,4.0,-999.0,-999,-99.99,,,-99.99,,2013-02-14 07:48:00,
2013-02-14 07:54:00,37.4,-99.9,28.56,West,270,4.0,-999.0,-999,-99.99,,,-99.99,,2013-02-14 07:54:00,
2013-02-14 08:00:00,37.5,-99.9,28.57,West,270,5.0,-999.0,-999,-99.99,,,-99.99,,2013-02-14 08:00:00,
2013-02-14 08:06:00,37.6,-99.9,28.57,West,270,5.0,-999.0,-999,-99.99,,,-99.99,,2013-02-14 08:06:00,
2013-02-14 08:12:00,37.7,-99.9,28.57,West,270,6.0,-999.0,-999,-99.99,,,-99.99,,2013-02-14 08:12:00,
2013-02-14 08:18:00,37.8,-99.9,28.57,West,270,6.0,-999.0,-999,-99.99,,,-99.99,,2013-02-14 08:18:00,
2013-02-14 08:24:00,37.8,-99.9,28.57,West,270,5.0,-999.0,-999,-99.99,,,-99.99,,2013-02-14 08:24:00,
2013-02-14 08:30:00,37.8,-99.9,28.57,West,270,5.0,-999.0,-999,-99.99,,,-99.99,,2013-02-14 08:30:00,
2013-02-14 08:36:00,38.0,-99.9,28.57,West,270,6.0,-999.0,-999,-99.99,,,-99.99,,2013-02-14 08:36:00,
2013-02-14 08:42:00,38.1,-99.9,28.57,West,270,6.0,-999.0,-999,-99.99,,,-99.99,,2013-02-14 08:42:00,
2013-02-14 08:48:00,38.2,-99.9,28.57,West,270,7.0,-999.0,-999,-99.99,,,-99.99,,2013-02-14 08:48:00,
2013-02-14 08:54:00,38.2,-99.9,28.58,WNW,292,10.0,-999.0,-999,-99.99,,,-99.99,,2013-02-14 08:54:00,
2013-02-14 09:00:00,38.5,-99.9,28.58,West,270,8.0,-999.0,-999,-99.99,,,-99.99,,2013-02-14 09:00:00,
2013-02-14 09:06:00,38.6,-99.9,28.58,West,270,9.0,-999.0,-999,-99.99,,,-99.99,,2013-02-14 09:06:00,
2013-02-14 09:12:00,38.9,-99.9,28.58,WSW,247,7.0,-999.0,-999,-99.99,,,-99.99,,2013-02-14 09:12:00,
2013-02-14 09:18:00,39.1,-99.9,28.59,WNW,292,7.0,-999.0,-999,-99.99,,,-99.99,,2013-02-14 09:18:00,
2013-02-14 09:24:00,39.4,-99.9,28.59,West,270,7.0,-999.0,-999,-99.99,,,-99.99,,2013-02-14 09:24:00,
2013-02-14 09:30:00,39.5,-99.9,28.59,West,270,6.0,-999.0,-999,-99.99,,,-99.99,,2013-02-14 09:30:00,
2013-02-14 09:36:00,40.0,-99.9,28.59,NW,315,8.0,-999.0,-999,-99.99,,,-99.99,,2013-02-14 09:36:00,
2013-02-14 09:42:00,41.2,-99.9,28.59,WSW,247,9.0,-999.0,-999,-99.99,,,-99.99,,2013-02-14 09:42:00,
2013-02-14 09:48:00,41.8,-99.9,28.59,West,270,9.0,-999.0,-999,-99.99,,,-99.99,,2013-02-14 09:48:00,
2013-02-14 09:54:00,41.7,-99.9,28.59,West,270,9.0,-999.0,-999,-99.99,,,-99.99,,2013-02-14 09:54:00,
2013-02-14 10:00:00,41.6,-99.9,28.59,SW,225,7.0,-999.0,-999,-99.99,,,-99.99,,2013-02-14 10:00:00,
2013-02-14 10:06:00,41.8,-99.9,28.59,SSE,157,5.0,-999.0,-999,-99.99,,,-99.99,,2013-02-14 10:06:00,
2013-02-14 10:12:00,41.8,-99.9,28.59,West,270,5.0,-999.0,-999,-99.99,,,-99.99,,2013-02-14 10:12:00,
2013-02-14 10:18:00,41.6,-99.9,28.59,WSW,247,8.0,-999.0,-999,-99.99,,,-99.99,,2013-02-14 10:18:00,
2013-02-14 10:24:00,41.7,-99.9,28.59,WSW,247,8.0,-999.0,-999,-99.99,,,-99.99,,2013-02-14 10:24:00,
2013-02-14 10:30:00,43.7,-99.9,28.59,WSW,247,8.0,-999.0,-999,-99.99,,,-99.99,,2013-02-14 10:30:00,
2013-02-14 10:36:00,46.3,-99.9,28.59,WSW,247,7.0,-999.0,-999,-99.99,,,-99.99,,2013-02-14 10:36:00,
2013-02-14 10:42:00,48.0,-99.9,28.60,West,270,9.0,-999.0,-999,-99.99,,,-99.99,,2013-02-14 10:42:00,
2013-02-14 10:48:00,49.2,-99.9,28.60,WSW,247,11.0,-999.0,-999,-99.99,,,-99.99,,2013-02-14 10:48:00,
2013-02-14 10:54:00,49.2,-99.9,28.60,SW,225,9.0,-999.0,-999,-99.99,,,-99.99,,2013-02-14 10:54:00,
2013-02-14 11:00:00,47.9,-99.9,28.61,West,270,10.0,-999.0,-999,-99.99,,,-99.99,,2013-02-14 11:00:00,
2013-02-14 11:06:00,45.8,-99.9,28.60,WSW,247,5.0,-999.0,-999,-99.99,,,-99.99,,2013-02-14 11:06:00,
2013-02-14 11:12:00,44.6,-99.9,28.60,West,270,9.0,-999.0,-999,-99.99,,,-99.99,,2013-02-14 11:12:00,
2013-02-14 11:18:00,44.3,-99.9,28.60,SW,225,5.0,-999.0,-999,-99.99,,,-99.99,,2013-02-14 11:18:00,
2013-02-14 11:24:00,44.0,-99.9,28.61,WNW,292,3.0,-999.0,-999,-99.99,,,-99.99,,2013-02-14 11:24:00,
2013-02-14 11:30:00,44.2,-99.9,28.61,West,270,11.0,-999.0,-999,-99.99,,,-99.99,,2013-02-14 11:30:00,
2013-02-14 11:36:00,44.6,-99.9,28.61,WNW,292,8.0,-999.0,-999,-99.99,,,-99.99,,2013-02-14 11:36:00,
2013-02-14 11:42:00,44.9,-99.9,28.61,West,270,8.0,-999.0,-999,-99.99,,,-99.99,,2013-02-14 11:42:00,
2013-02-14 11:48:00,44.6,-99.9,28.61,SW,225,6.0,-999.0,-999,-99.99,,,-99.99,,2013-02-14 11:48:00,
2013-02-14 11:54:00,45.7,-99.9,28.61,SW,225,11.0,-999.0,-999,-99.99,,,-99.99,,2013-02-14 11:54:00,
2013-02-14 12:00:00,44.9,-99.9,28.61,SW,225,7.0,-999.0,-999,-99.99,,,-99.99,,2013-02-14 12:00:00,
2013-02-14 12:06:00,44.4,-99.9,28.61,SW,225,6.0,-999.0,-999,-99.99,,,-99.99,,2013-02-14 12:06:00,
2013-02-14 12:12:00,43.7,-99.9,28.61,WNW,292,7.0,-999.0,-999,-99.99,,,-99.99,,2013-02-14 12:12:00,
2013-02-14 12:20:00,43.1,-99.9,28.61,West,270,6.0,-999.0,-999,-99.99,,,-99.99,,2013-02-14 12:20:00,
2013-02-14 12:26:00,44.4,-99.9,28.62,WNW,292,11.0,-999.0,-999,-99.99,,,-99.99,,2013-02-14 12:26:00,
2013-02-14 12:32:00,44.7,-99.9,28.62,SW,225,11.0,-999.0,-999,-99.99,,,-99.99,,2013-02-14 12:32:00,
2013-02-14 12:38:00,45.0,-99.9,28.62,West,270,6.0,-999.0,-999,-99.99,,,-99.99,,2013-02-14 12:38:00,
2013-02-14 12:44:00,44.8,-99.9,28.62,West,270,7.0,-999.0,-999,-99.99,,,-99.99,,2013-02-14 12:44:00,
2013-02-14 12:50:00,44.4,-99.9,28.62,SW,225,4.0,-999.0,-999,-99.99,,,-99.99,,2013-02-14 12:50:00,
2013-02-14 12:56:00,44.0,-99.9,28.62,West,270,7.0,-999.0,-999,-99.99,,,-99.99,,2013-02-14 12:56:00,
2013-02-14 13:02:00,43.6,-99.9,28.62,West,270,5.0,-999.0,-999,-99.99,,,-99.99,,2013-02-14 13:02:00,
2013-02-14 13:08:00,43.5,-99.9,28.62,NNW,337,3.0,-999.0,-999,-99.99,,,-99.99,,2013-02-14 13:08:00,
2013-02-14 13:14:00,43.5,-99.9,28.63,WSW,247,6.0,-999.0,-999,-99.99,,,-99.99,,2013-02-14 13:14:00,
2013-02-14 13:20:00,43.2,-99.9,28.63,South,180,5.0,-999.0,-999,-99.99,,,-99.99,,2013-02-14 13:20:00,
2013-02-14 13:26:00,42.7,-99.9,28.63,NNW,337,4.0,-999.0,-999,-99.99,,,-99.99,,2013-02-14 13:26:00,
2013-02-14 13:32:00,42.5,-99.9,28.63,NNW,337,7.0,-999.0,-999,-99.99,,,-99.99,,2013-02-14 13:32:00,
2013-02-14 13:38:00,44.3,-99.9,28.63,WNW,292,5.0,-999.0,-999,-99.99,,,-99.99,,2013-02-14 13:38:00,
2013-02-14 13:44:00,47.1,-99.9,28.63,WNW,292,6.0,-999.0,-999,-99.99,,,-99.99,,2013-02-14 13:44:00,
2013-02-14 13:50:00,48.1,-99.9,28.63,SW,225,4.0,-999.0,-999,-99.99,,,-99.99,,2013-02-14 13:50:00,
2013-02-14 13:56:00,49.2,-99.9,28.63,SW,225,8.0,-999.0,-999,-99.99,,,-99.99,,2013-02-14 13:56:00,
2013-02-14 14:02:00,47.2,-99.9,28.63,SSE,157,8.0,-999.0,-999,-99.99,,,-99.99,,2013-02-14 14:02:00,
2013-02-14 14:08:00,45.8,-99.9,28.63,WNW,292,8.0,-999.0,-999,-99.99,,,-99.99,,2013-02-14 14:08:00,
2013-02-14 14:14:00,44.4,-99.9,28.63,South,180,8.0,-999.0,-999,-99.99,,,-99.99,,2013-02-14 14:14:00,
2013-02-14 14:20:00,44.0,-99.9,28.63,NE,45,6.0,-999.0,-999,-99.99,,,-99.99,,2013-02-14 14:20:00,
2013-02-14 14:26:00,43.4,-99.9,28.64,ENE,67,8.0,-999.0,-999,-99.99,,,-99.99,,2013-02-14 14:26:00,
2013-02-14 14:32:00,42.5,-99.9,28.64,WNW,292,7.0,-999.0,-999,-99.99,,,-99.99,,2013-02-14 14:32:00,
2013-02-14 14:38:00,41.9,-99.9,28.64,NE,45,8.0,-999.0,-999,-99.99,,,-99.99,,2013-02-14 14:38:00,
2013-02-14 14:44:00,40.7,-99.9,28.64,South,180,7.0,-999.0,-999,-99.99,,,-99.99,,2013-02-14 14:44:00,
2013-02-14 14:50:00,40.5,-99.9,28.64,WNW,292,5.0,-999.0,-999,-99.99,,,-99.99,,2013-02-14 14:50:00,
2013-02-14 14:56:00,41.8,-99.9,28.63,SE,135,5.0,-999.0,-999,-99.99,,,-99.99,,2013-02-14 14:56:00,
2013-02-14 15:02:00,43.1,-99.9,28.63,South,180,5.0,-999.0,-999,-99.99,,,-99.99,,2013-02-14 15:02:00,
2013-02-14 15:08:00,45.0,-99.9,28.64,SW,225,6.0,-999.0,-999,-99.99,,,-99.99,,2013-02-14 15:08:00,
2013-02-14 15:14:00,46.3,-99.9,28.64,WNW,292,7.0,-999.0,-999,-99.99,,,-99.99,,2013-02-14 15:14:00,
2013-02-14 15:20:00,45.4,-99.9,28.64,WSW,247,5.0,-999.0,-999,-99.99,,,-99.99,,2013-02-14 15:20:00,
2013-02-14 15:26:00,42.9,-99.9,28.64,SW,225,6.0,-999.0,-999,-99.99,,,-99.99,,2013-02-14 15:26:00,
2013-02-14 15:32:00,41.5,-99.9,28.64,SSW,202,6.0,-999.0,-999,-99.99,,,-99.99,,2013-02-14 15:32:00,
2013-02-14 15:38:00,41.0,-99.9,28.65,West,270,7.0,-999.0,-999,-99.99,,,-99.99,,2013-02-14 15:38:00,
2013-02-14 15:44:00,41.1,-99.9,28.65,SE,135,5.0,-999.0,-999,-99.99,,,-99.99,,2013-02-14 15:44:00,
2013-02-14 15:50:00,41.2,-99.9,28.65,South,180,6.0,-999.0,-999,-99.99,,,-99.99,,2013-02-14 15:50:00,
2013-02-14 15:56:00,41.6,-99.9,28.65,WNW,292,6.0,-999.0,-999,-99.99,,,-99.99,,2013-02-14 15:56:00,
2013-02-14 16:02:00,41.3,-99.9,28.65,NNW,337,8.0,-999.0,-999,-99.99,,,-99.99,,2013-02-14 16:02:00,
2013-02-14 16:08:00,40.7,-99.9,28.64,SSW,202,8.0,-999.0,-999,-99.99,,,-99.99,,2013-02-14 16:08:00,
2013-02-14 16:14:00,40.1,-99.9,28.64,SSW,202,8.0,-999.0,-999,-99.99,,,-99.99,,2013-02-14 16:14:00,
2013-02-14 16:20:00,40.0,-99.9,28.64,WSW,247,8.0,-999.0,-999,-99.99,,,-99.99,,2013-02-14 16:20:00,
2013-02-14 16:26:00,39.9,-99.9,28.64,SSW,202,8.0,-999.0,-999,-99.99,,,-99.99,,2013-02-14 16:26:00,
2013-02-14 16:32:00,39.9,-99.9,28.65,South,180,7.0,-999.0,-999,-99.99,,,-99.99,,2013-02-14 16:32:00,
2013-02-14 16:38:00,39.7,-99.9,28.65,East,90,6.0,-999.0,-999,-99.99,,,-99.99,,2013-02-14 16:38:00,
2013-02-14 16:44:00,39.5,-99.9,28.66,West,270,6.0,-999.0,-999,-99.99,,,-99.99,,2013-02-14 16:44:00,
2013-02-14 16:50:00,39.4,-99.9,28.66,SSW,202,6.0,-999.0,-999,-99.99,,,-99.99,,2013-02-14 16:50:00,
2013-02-14 16:56:00,39.4,-99.9,28.66,West,270,6.0,-999.0,-999,-99.99,,,-99.99,,2013-02-14 16:56:00,
2013-02-14 17:02:00,39.1,-99.9,28.67,West,270,9.0,-999.0,-999,-99.99,,,-99.99,,2013-02-14 17:02:00,
2013-02-14 17:08:00,39.1,-99.9,28.67,West,270,11.0,-999.0,-999,-99.99,,,-99.99,,2013-02-14 17:08:00,
2013-02-14 17:14:00,38.9,-99.9,28.67,WSW,247,8.0,-999.0,-999,-99.99,,,-99.99,,2013-02-14 17:14:00,
2013-02-14 17:20:00,38.6,-99.9,28.67,WNW,292,9.0,-999.0,-999,-99.99,,,-99.99,,2013-02-14 17:20:00,
2013-02-14 17:26:00,38.8,-99.9,28.67,West,270,12.0,-999.0,-999,-99.99,,,-99.99,,2013-02-14 17:26:00,
2013-02-14 17:32:00,38.9,-99.9,28.67,West,270,7.0,-999.0,-999,-99.99,,,-99.99,,2013-02-14 17:32:00,
2013-02-14 17:38:00,38.8,-99.9,28.67,West,270,12.0,-999.0,-999,-99.99,,,-99.99,,2013-02-14 17:38:00,
2013-02-14 17:44:00,38.4,-99.9,28.67,WSW,247,10.0,-999.0,-999,-99.99,,,-99.99,,2013-02-14 17:44:00,
2013-02-14 17:50:00,38.0,-99.9,28.67,West,270,12.0,-999.0,-999,-99.99,,,-99.99,,2013-02-14 17:50:00,